Notices

What's New in latest Release from April 7th, 2021:

- Updated Glossary, including Speed of Maximum Gust, and Total Hourly Precipitation

- Updated national and regional climate services offices contacts and prices information

- Addition of station inventory lists for 1981-2010, 1971-2000, and 1961-1990 Normals.

If you haven't already, please take our survey and provide feedback about our website: https://eccc.sondage-survey.ca/f/LanguageSelection.aspx?s=442ca660-fcf1-47c0-95a9-59707d6fd709

Hourly Data Report for October 22, 2004

SHERBROOKE A
QUEBEC

45°26'00.000" N
71°41'00.000" W
241.40 m
7028124
71610
YSC

Download Data

Hourly Data (October 2004)
Hourly Data Report for October 22, 2004
TIME
LST
Temp Definition
°C
Dew Point Definition
°C
Rel Hum Definition
%
Precip. Amount Definition
mm

Wind Dir Definition
10's deg

Wind Spd Definition
km/h
Visibility Definition
km
Stn Press Definition
kPa
Hmdx Definition


Wind Chill Definition


Weather Definition


00:00 0.6 -1.6 85   9 7 15.0 99.77      
01:00 0.0 -2.0 86   6 7 15.0 99.77   -2  
02:00 -1.2 -2.8 89   8 6 15.0 99.81   -3  
03:00 -0.2 -1.7 90   6 11 15.0 99.82   -4  
04:00 -0.7 -2.1 90   8 7 15.0 99.85   -3  
05:00 -1.9 -3.2 91   9 6 15.0 99.89   -4  
06:00 -1.5 -2.8 91   9 9 15.0 99.91   -5  
07:00 -0.8 -2.4 89   10 11 24.1 99.97   -5 Mainly Clear
08:00 1.1 -0.4 90   7 7 24.1 100.03     Mainly Clear
09:00 6.1 3.5 83   7 9 24.1 100.04     Mainly Clear
10:00 7.8 3.4 74   2 13 24.1 100.03     Mostly Cloudy
11:00 7.7 2.7 71   4 11 24.1 100.02     Mostly Cloudy
12:00 7.9 2.1 67   5 11 24.1 99.97     Mostly Cloudy
13:00 8.1 1.5 63   3 13 24.1 99.91     Mostly Cloudy
14:00 8.6 1.4 61   3 13 24.1 99.87     Mostly Cloudy
15:00 8.1 0.9 60   4 11 24.1 99.84     Mostly Cloudy
16:00 7.6 1.0 63   4 7 24.1 99.86     Mostly Cloudy
17:00 6.8 0.7 65   7 9 15.0 99.89      
18:00 6.7 -0.1 62   6 7 15.0 99.93      
19:00 6.2 -0.4 63   9 11 15.0 99.91      
20:00 4.8 -0.9 67   9 7 15.0 99.92      
21:00 4.1 -0.5 72   11 9 15.0 99.92      
22:00 3.0 -1.4 73   9 7 15.0 99.91      
23:00 1.7 -1.9 77   8 9 15.0 99.89      

Notes on Data Quality.

Legend

  • E = Estimated
  • M = Missing
  • NA = Not Available*
  • [empty] = Indicates an unobserved value
Date modified: